Total_Precipitation_Accumulation
0.28 0.26 0.24 0.25 0.20 0.26 0.42 0.29 0.17 0.06 0.05 0.19 0.14 0.03 0.00 0.00 0.00 0.00 0.00 0.00 0.00 0.00 0.00 0.00 0.00 0.00 0.00 0.00 0.00 0.00 0.00 0.00 0.00 0.01 0.00 0.00 0.00 0.00 0.01 0.01 0.02 0.01 0.03 0.01
0.38 0.36 0.34 0.31 0.23 0.25 0.31 0.39 0.28 0.49 0.12 0.10 0.04 0.01 0.00 0.00 0.00 0.00 0.00 0.00 0.00 0.00 0.00 0.00 0.00 0.00 0.00 0.00 0.00 0.00 0.00 0.00 0.00 0.00 0.00 0.01 0.00 0.00 0.00 0.00 0.00 0.01 0.03 0.00
0.47 0.42 0.48 0.35 0.28 0.27 0.37 0.40 0.44 0.74 0.33 0.01 0.00 0.01 0.01 0.00 0.00 0.00 0.00 0.00 0.00 0.00 0.00 0.00 0.00 0.00 0.00 0.00 0.00 0.00 0.00 0.00 0.00 0.00 0.00 0.00 0.00 0.00 0.00 0.00 0.00 0.00 0.00 0.00
0.57 0.51 0.58 0.46 0.38 0.39 0.74 0.69 0.26 0.21 0.16 0.04 0.01 0.00 0.00 0.00 0.00 0.00 0.00 0.00 0.00 0.00 0.00 0.00 0.00 0.00 0.00 0.00 0.00 0.00 0.00 0.00 0.00 0.00 0.00 0.00 0.00 0.00 0.00 0.00 0.00 0.00 0.00 0.00
0.64 0.59 0.71 0.58 0.51 0.66 1.06 0.74 0.16 0.04 0.02 0.01 0.01 0.02 0.01 0.00 0.00 0.00 0.00 0.00 0.00 0.00 0.00 0.00 0.00 0.00 0.00 0.00 0.00 0.00 0.00 0.00 0.00 0.00 0.00 0.00 0.00 0.00 0.00 0.00 0.00 0.00 0.00 0.00
0.71 0.60 0.74 0.72 0.74 1.11 1.16 0.44 0.07 0.04 0.05 0.03 0.02 0.01 0.00 0.00 0.00 0.00 0.00 0.00 0.00 0.00 0.00 0.00 0.00 0.00 0.00 0.00 0.00 0.00 0.00 0.00 0.01 0.01 0.00 0.01 0.01 0.00 0.00 0.00 0.00 0.00 0.00 0.00
0.69 0.68 0.71 0.77 0.79 0.90 0.52 0.16 0.11 0.22 0.10 0.06 0.01 0.00 0.00 0.00 0.00 0.00 0.00 0.00 0.00 0.00 0.00 0.01 0.00 0.00 0.00 0.01 0.02 0.01 0.00 0.00 0.01 0.01 0.02 0.07 0.00 0.00 0.00 0.00 0.00 0.00 0.00 0.00
0.57 0.64 0.67 0.69 0.56 0.53 0.40 0.18 0.21 0.35 0.19 0.03 0.02 0.00 0.00 0.01 0.01 0.00 0.00 0.00 0.00 0.00 0.01 0.04 0.07 0.04 0.04 0.04 0.04 0.02 0.00 0.00 0.01 0.02 0.03 0.02 0.00 0.00 0.00 0.00 0.00 0.00 0.00 0.02
0.52 0.51 0.58 0.45 0.35 0.40 0.39 0.30 0.30 0.57 0.43 0.06 0.01 0.04 0.01 0.01 0.03 0.05 0.06 0.03 0.03 0.01 0.02 0.04 0.05 0.05 0.02 0.00 0.00 0.00 0.00 0.01 0.02 0.03 0.05 0.04 0.00 0.00 0.00 0.00 0.01 0.01 0.04 0.09
0.49 0.39 0.40 0.31 0.23 0.36 0.45 0.39 0.44 0.78 0.63 0.16 0.06 0.08 0.05 0.00 0.03 0.09 0.05 0.14 0.11 0.12 0.14 0.15 0.04 0.01 0.01 0.01 0.01 0.01 0.01 0.01 0.01 0.01 0.04 0.01 0.00 0.00 0.01 0.14 0.17 0.06 0.12 0.17
0.43 0.30 0.29 0.27 0.19 0.29 0.42 0.43 0.55 0.79 0.76 0.22 0.23 0.09 0.09 0.02 0.05 0.09 0.05 0.08 0.10 0.17 0.22 0.15 0.04 0.02 0.01 0.02 0.01 0.01 0.03 0.09 0.10 0.07 0.16 0.06 0.00 0.03 0.15 0.18 0.08 0.08 0.07 0.06
0.38 0.29 0.28 0.28 0.18 0.24 0.40 0.45 0.60 0.61 0.98 0.41 0.33 0.15 0.04 0.09 0.01 0.07 0.11 0.05 0.04 0.10 0.10 0.07 0.05 0.02 0.02 0.00 0.02 0.00 0.01 0.01 0.03 0.04 0.03 0.00 0.00 0.03 0.02 0.04 0.10 0.07 0.07 0.09
0.37 0.33 0.31 0.28 0.19 0.24 0.38 0.40 0.68 0.88 0.86 0.44 0.29 0.22 0.06 0.04 0.03 0.05 0.18 0.06 0.05 0.09 0.14 0.25 0.15 0.16 0.06 0.05 0.04 0.02 0.05 0.03 0.03 0.03 0.01 0.00 0.01 0.01 0.02 0.06 0.08 0.13 0.20 0.24
0.41 0.31 0.32 0.28 0.19 0.26 0.38 0.43 0.72 1.16 1.27 0.80 0.47 0.37 0.22 0.09 0.06 0.01 0.11 0.11 0.13 0.24 0.32 0.36 0.25 0.27 0.13 0.07 0.03 0.05 0.08 0.07 0.04 0.05 0.01 0.03 0.04 0.08 0.14 0.21 0.31 0.29 0.19 0.14
0.40 0.33 0.34 0.34 0.26 0.35 0.56 0.56 0.61 1.13 1.56 0.95 0.43 0.38 0.28 0.23 0.18 0.07 0.16 0.33 0.32 0.37 0.34 0.25 0.11 0.04 0.06 0.08 0.09 0.13 0.06 0.03 0.06 0.10 0.07 0.23 0.22 0.33 0.42 0.38 0.27 0.15 0.09 0.04
0.40 0.34 0.41 0.42 0.47 0.76 1.53 1.43 0.66 0.95 1.27 1.68 0.87 0.43 0.35 0.43 0.41 0.29 0.12 0.18 0.50 0.68 0.38 0.16 0.04 0.03 0.12 0.27 0.14 0.02 0.00 0.02 0.12 0.17 0.14 0.22 0.32 0.34 0.22 0.20 0.13 0.04 0.01 0.00
0.35 0.36 0.48 0.63 0.83 1.33 1.85 1.23 0.63 0.60 1.16 2.00 1.41 0.67 0.34 0.55 0.44 0.33 0.21 0.19 0.27 0.39 0.43 0.33 0.19 0.10 0.32 0.41 0.16 0.01 0.00 0.01 0.05 0.06 0.10 0.20 0.20 0.19 0.14 0.06 0.01 0.00 0.00 0.00
0.38 0.40 0.55 0.86 1.65 2.04 1.69 1.31 1.28 0.82 0.96 1.41 1.49 0.82 0.50 0.75 0.42 0.31 0.18 0.18 0.20 0.22 0.24 0.21 0.21 0.23 0.35 0.36 0.04 0.00 0.00 0.00 0.00 0.01 0.03 0.09 0.04 0.01 0.01 0.00 0.00 0.00 0.01 0.04
0.58 0.80 1.23 1.55 1.61 1.46 1.21 1.77 1.90 1.54 1.47 1.58 1.10 0.87 0.65 0.56 0.54 0.30 0.37 0.26 0.33 0.22 0.15 0.10 0.17 0.16 0.20 0.12 0.02 0.01 0.01 0.02 0.02 0.01 0.00 0.00 0.00 0.00 0.01 0.01 0.03 0.05 0.04 0.00
1.31 1.55 1.81 1.92 1.69 1.47 1.29 1.88 2.16 2.07 1.76 1.36 0.80 0.69 1.02 0.64 0.68 0.47 0.55 0.66 0.37 0.28 0.09 0.11 0.12 0.05 0.01 0.00 0.00 0.01 0.01 0.01 0.01 0.01 0.02 0.04 0.05 0.07 0.07 0.06 0.03 0.00 0.00 0.01
2.39 2.07 1.86 1.57 1.83 1.47 1.60 1.75 1.56 1.10 0.67 0.42 0.21 0.22 0.70 0.98 0.82 0.67 0.75 0.85 0.53 0.25 0.06 0.15 0.11 0.02 0.01 0.01 0.01 0.01 0.01 0.01 0.01 0.01 0.02 0.06 0.11 0.06 0.01 0.00 0.01 0.02 0.03 0.04
2.04 1.53 1.38 1.74 1.62 1.47 1.39 1.43 1.01 0.40 0.13 0.06 0.06 0.05 0.27 0.95 0.91 0.76 0.79 0.59 0.63 0.34 0.05 0.11 0.08 0.02 0.01 0.03 0.02 0.01 0.01 0.01 0.04 0.08 0.08 0.05 0.01 0.02 0.02 0.02 0.04 0.06 0.09 0.14
1.91 1.76 2.01 1.91 2.00 1.63 1.06 0.59 0.35 0.16 0.05 0.05 0.04 0.06 0.11 0.46 0.72 0.86 0.80 0.70 0.56 0.31 0.28 0.13 0.05 0.03 0.03 0.04 0.03 0.03 0.02 0.03 0.02 0.02 0.03 0.03 0.04 0.04 0.05 0.07 0.11 0.14 0.16 0.15
1.87 2.19 2.17 1.84 1.50 0.90 0.48 0.16 0.09 0.06 0.06 0.06 0.04 0.09 0.14 0.27 0.46 0.72 0.94 0.94 0.48 0.43 0.21 0.12 0.15 0.13 0.11 0.06 0.03 0.01 0.02 0.03 0.04 0.06 0.06 0.06 0.07 0.10 0.13 0.15 0.16 0.13 0.12 0.12
1.19 0.98 1.10 1.00 0.61 0.40 0.31 0.18 0.12 0.11 0.11 0.12 0.16 0.28 0.27 0.31 0.60 0.62 0.54 0.56 0.43 0.30 0.28 0.37 0.34 0.12 0.03 0.02 0.01 0.02 0.04 0.06 0.08 0.09 0.09 0.10 0.10 0.10 0.14 0.17 0.15 0.08 0.04 0.03
0.59 0.61 0.68 0.51 0.39 0.48 0.39 0.30 0.31 0.29 0.33 0.32 0.36 0.41 0.41 0.53 0.40 0.32 0.29 0.28 0.28 0.36 0.22 0.18 0.13 0.13 0.07 0.06 0.07 0.09 0.12 0.15 0.18 0.17 0.15 0.14 0.16 0.15 0.12 0.07 0.03 0.03 0.04 0.04
0.56 0.58 0.46 0.31 0.33 0.47 0.40 0.36 0.38 0.35 0.32 0.30 0.25 0.24 0.26 0.30 0.26 0.22 0.21 0.27 0.20 0.11 0.10 0.14 0.12 0.10 0.10 0.11 0.12 0.14 0.14 0.16 0.17 0.15 0.12 0.09 0.07 0.05 0.05 0.04 0.02 0.02 0.01 0.02